STARLINK-3845 (52541 NORAD) Tracking and Keplerian Element Data

This shows tracking and keplerian element data for the satellite.

Feedback or suggestion? Click here.




ElementValue
Catalog52541
NameSTARLINK-3845
Epoch Orbit130
Epoch Day167.08334491
Epoch Year2022
RAAN132.25
Inclination53.2172
Eccentricity0.0001784
Argument of Perigee41.873
Mean Anonmoly84.5767
Mean Motion15.31841231
Decay Rate-0.00825577
L11 52541U 22051J 22167.08334491 -.00825577 00000+0 -28645-1 0 9998
L22 52541 53.2172 132.2500 0001784 41.8730 84.5767 15.31841231 1305

Live tracking and technical data element details for STARLINK-3845 (NORAD 52541). STARLINK-3845 can be tracked NOW for your location showing map with azimuth and elevation plus other details from your city location.

Track the satellite on the map from your city or location and see movement details for azimuth, elevation, latitude, longitude, range, height, and movement on the map or in text.







IsCatalogInMostPopularTable: catalog: 52541, numindb: 3
Update: records affected: 1



GetName: 52541 STARLINK-3845

Hit Count: updated at: Sat, 25 Jun 2022 05:44:15 GMT